User: anonymous   Login
Location: Newark
(50.0306°N, 2.3272°E)
Time: 08:21:08
(UTC+00:00)
Language:

DIWATA 2B (PO-101) - Orbit

View from above orbital plane
View from above orbital plane
View from above satellite
View from above satellite

Ground track
Ground track

The orbit data is extracted from the following two-line orbital elements,

1 43678U 18084H   20026.18575590 -.00000099  00000-0 -41282-5 0  9991
2 43678  97.8681 144.7605 0008677 295.7385  64.2934 14.91600412 67664
Epoch (UTC): 26 January 2020 04:27:29
Eccentricity: 0.0008677
inclination: 97.8681°
perigee height: 587 km
apogee height: 599 km
right ascension of ascending node: 144.7605°
argument of perigee: 295.7385°
revolutions per day: 14.91600412
mean anomaly at epoch: 64.2934°
orbit number at epoch: 6766

The dashed part of the orbit path shows where the satellite is in the earth's shadow,  

DLR